| time (UTC) | temp F | wind direction | speed MPH | gust MPH | rain 1hr in | rain 24hr in | rain mn in | humidity % | barometer mb |
| 20260504050334 | 60 | 356 | 2.0 | 3.0 | 0.00 | 0.00 | 0.00 | 32 | 924.7 |
| 20260504045831 | 59 | 13 | 1.0 | 2.0 | 0.00 | 0.00 | 0.00 | 33 | 924.4 |
| 20260504045326 | 60 | 355 | 0.0 | 1.0 | 0.00 | 0.00 | 0.00 | 32 | 924.7 |
| 20260504044823 | 60 | 20 | 0.0 | 2.0 | 0.00 | 0.00 | 0.00 | 31 | 924.6 |
| 20260504044321 | 60 | 3 | 0.0 | 2.0 | 0.00 | 0.00 | 0.00 | 31 | 924.7 |
| 20260504043818 | 60 | 356 | 2.0 | 2.0 | 0.00 | 0.00 | 0.00 | 31 | 924.7 |
| 20260504043315 | 60 | 1 | 2.0 | 3.0 | 0.00 | 0.00 | 0.00 | 31 | 924.6 |
| 20260504042812 | 60 | 55 | 0.0 | 1.0 | 0.00 | 0.00 | 0.00 | 31 | 924.4 |
| 20260504042308 | 60 | 4 | 0.0 | 2.0 | 0.00 | 0.00 | 0.00 | 31 | 924.4 |
| 20260504041805 | 60 | 306 | 0.0 | 2.0 | 0.00 | 0.00 | 0.00 | 31 | 924.4 |
| 20260504041301 | 60 | 355 | 2.0 | 2.0 | 0.00 | 0.00 | 0.00 | 30 | 924.4 |
| 20260504040757 | 60 | 341 | 2.0 | 2.0 | 0.00 | 0.00 | 0.00 | 30 | 924.3 |
| 20260504040255 | 61 | 354 | 2.0 | 2.0 | 0.00 | 0.00 | 0.00 | 30 | 924.3 |
| 20260504035750 | 61 | 325 | 0.0 | 2.0 | 0.00 | 0.00 | 0.00 | 29 | 924.6 |
| 20260504035248 | 62 | 343 | 2.0 | 3.0 | 0.00 | 0.00 | 0.00 | 28 | 924.3 |
| 20260504034745 | 62 | 344 | 2.0 | 4.0 | 0.00 | 0.00 | 0.00 | 28 | 924.3 |
| 20260504034242 | 62 | 0 | 3.0 | 4.0 | 0.00 | 0.00 | 0.00 | 28 | 924.1 |
| 20260504033740 | 62 | 350 | 1.0 | 2.0 | 0.00 | 0.00 | 0.00 | 29 | 924.2 |
| 20260504033237 | 62 | 353 | 1.0 | 4.0 | 0.00 | 0.00 | 0.00 | 29 | 923.9 |
| 20260504032734 | 62 | 356 | 1.0 | 2.0 | 0.00 | 0.00 | 0.00 | 29 | 924.1 |
| 20260504032231 | 62 | 50 | 0.0 | 2.0 | 0.00 | 0.00 | 0.00 | 29 | 923.9 |
| 20260504031728 | 62 | 352 | 0.0 | 2.0 | 0.00 | 0.00 | 0.00 | 29 | 924.1 |
| 20260504031225 | 63 | 16 | 1.0 | 2.0 | 0.00 | 0.00 | 0.00 | 29 | 924.0 |
| 20260504030721 | 63 | 0 | 2.0 | 3.0 | 0.00 | 0.00 | 0.00 | 29 | 923.8 |
| 20260504030219 | 63 | 356 | 2.0 | 3.0 | 0.00 | 0.00 | 0.00 | 30 | 924.1 |
| 20260504025715 | 63 | 353 | 3.0 | 4.0 | 0.00 | 0.00 | 0.00 | 30 | 924.0 |
| 20260504025211 | 64 | 351 | 4.0 | 4.0 | 0.00 | 0.00 | 0.00 | 30 | 923.9 |
| 20260504024709 | 64 | 348 | 4.0 | 5.0 | 0.00 | 0.00 | 0.00 | 31 | 923.7 |
| 20260504024205 | 64 | 335 | 4.0 | 5.0 | 0.00 | 0.00 | 0.00 | 32 | 923.8 |
| 20260504023702 | 68 | 348 | 6.0 | 6.0 | 0.00 | 0.00 | 0.00 | 32 | 923.7 |
| 20260504023158 | 68 | 348 | 6.0 | 6.0 | 0.00 | 0.00 | 0.00 | 32 | 923.5 |
| 20260504022654 | 68 | 348 | 6.0 | 6.0 | 0.00 | 0.00 | 0.00 | 32 | 923.6 |
| 20260504022150 | 68 | 348 | 6.0 | 6.0 | 0.00 | 0.00 | 0.00 | 32 | 923.7 |
| 20260504021649 | 68 | 338 | 3.0 | 3.0 | 0.00 | 0.00 | 0.00 | 32 | 923.7 |
| 20260504021145 | 68 | 349 | 5.0 | 5.0 | 0.00 | 0.00 | 0.00 | 32 | 923.3 |
| 20260504020642 | 68 | 341 | 3.0 | 5.0 | 0.00 | 0.00 | 0.00 | 31 | 923.5 |
| 20260504020138 | 69 | 347 | 4.0 | 4.0 | 0.00 | 0.00 | 0.00 | 31 | 923.4 |
| 20260504015635 | 69 | 351 | 2.0 | 4.0 | 0.00 | 0.00 | 0.00 | 31 | 923.4 |
| 20260504015131 | 70 | 334 | 3.0 | 4.0 | 0.00 | 0.00 | 0.00 | 30 | 923.4 |
| 20260504014627 | 71 | 333 | 2.0 | 4.0 | 0.00 | 0.00 | 0.00 | 29 | 923.4 |
| 20260504014124 | 72 | 345 | 4.0 | 4.0 | 0.00 | 0.00 | 0.00 | 27 | 923.4 |
| 20260504013621 | 72 | 338 | 4.0 | 4.0 | 0.00 | 0.00 | 0.00 | 26 | 923.4 |
| 20260504013118 | 74 | 350 | 5.0 | 5.0 | 0.00 | 0.00 | 0.00 | 24 | 923.4 |
| 20260504012616 | 74 | 350 | 5.0 | 5.0 | 0.00 | 0.00 | 0.00 | 24 | 923.3 |
| 20260504012114 | 73 | 311 | 3.0 | 3.0 | 0.00 | 0.00 | 0.00 | 23 | 923.4 |
| 20260504011610 | 73 | 345 | 3.0 | 5.0 | 0.00 | 0.00 | 0.00 | 24 | 923.4 |
| 20260504011106 | 73 | 268 | 2.0 | 4.0 | 0.00 | 0.00 | 0.00 | 24 | 923.4 |
| 20260504010602 | 74 | 341 | 6.0 | 6.0 | 0.00 | 0.00 | 0.00 | 23 | 923.5 |
| 20260504010058 | 74 | 309 | 2.0 | 3.0 | 0.00 | 0.00 | 0.00 | 23 | 923.6 |
| 20260504005555 | 74 | 286 | 4.0 | 4.0 | 0.00 | 0.00 | 0.00 | 21 | 923.6 |
| 20260504005052 | 75 | 328 | 2.0 | 8.0 | 0.00 | 0.00 | 0.00 | 21 | 923.5 |
| 20260504004550 | 75 | 347 | 6.0 | 10.0 | 0.00 | 0.00 | 0.00 | 21 | 923.5 |
| 20260504004047 | 76 | 320 | 0.0 | 7.0 | 0.00 | 0.00 | 0.00 | 20 | 923.7 |
| 20260504003543 | 77 | 311 | 3.0 | 7.0 | 0.00 | 0.00 | 0.00 | 20 | 923.6 |
| 20260504003040 | 77 | 316 | 5.0 | 9.0 | 0.00 | 0.00 | 0.00 | 20 | 923.7 |
| 20260504002537 | 77 | 274 | 10.0 | 11.0 | 0.00 | 0.00 | 0.00 | 20 | 923.5 |
| 20260504002035 | 77 | 257 | 9.0 | 12.0 | 0.00 | 0.00 | 0.00 | 19 | 923.7 |
| 20260504001532 | 78 | 284 | 5.0 | 9.0 | 0.00 | 0.00 | 0.00 | 18 | 923.8 |
| 20260504001028 | 78 | 282 | 4.0 | 6.0 | 0.00 | 0.00 | 0.00 | 19 | 923.8 |
| 20260504000525 | 77 | 331 | 1.0 | 7.0 | 0.00 | 0.00 | 0.00 | 20 | 923.9 |
| 20260504000023 | 77 | 252 | 10.0 | 16.0 | 0.00 | 0.00 | 0.00 | 17 | 923.8 |
| 20260503235521 | 77 | 274 | 9.0 | 11.0 | 0.00 | 0.00 | 0.00 | 17 | 923.9 |
| 20260503235017 | 78 | 284 | 4.0 | 10.0 | 0.00 | 0.00 | 0.00 | 18 | 923.9 |
| 20260503234515 | 77 | 350 | 5.0 | 9.0 | 0.00 | 0.00 | 0.00 | 19 | 924.0 |
| 20260503234014 | 78 | 341 | 7.0 | 10.0 | 0.00 | 0.00 | 0.00 | 17 | 924.0 |
| 20260503233509 | 78 | 340 | 5.0 | 5.0 | 0.00 | 0.00 | 0.00 | 17 | 924.2 |
| 20260503233005 | 78 | 305 | 3.0 | 10.0 | 0.00 | 0.00 | 0.00 | 17 | 924.3 |
| 20260503232502 | 77 | 335 | 5.0 | 11.0 | 0.00 | 0.00 | 0.00 | 16 | 924.3 |
| 20260503232000 | 77 | 350 | 6.0 | 10.0 | 0.00 | 0.00 | 0.00 | 16 | 924.4 |
| 20260503231458 | 78 | 343 | 9.0 | 9.0 | 0.00 | 0.00 | 0.00 | 17 | 924.3 |
| 20260503230954 | 77 | 343 | 5.0 | 11.0 | 0.00 | 0.00 | 0.00 | 15 | 924.6 |
| 20260503230450 | 77 | 305 | 2.0 | 13.0 | 0.00 | 0.00 | 0.00 | 17 | 924.7 |
| 20260503225948 | 77 | 344 | 6.0 | 17.0 | 0.00 | 0.00 | 0.00 | 17 | 924.7 |
| 20260503225445 | 78 | 357 | 8.0 | 15.0 | 0.00 | 0.00 | 0.00 | 17 | 924.6 |
| 20260503224940 | 78 | 322 | 3.0 | 9.0 | 0.00 | 0.00 | 0.00 | 19 | 924.6 |
| 20260503224437 | 77 | 298 | 3.0 | 13.0 | 0.00 | 0.00 | 0.00 | 19 | 924.9 |
| 20260503223935 | 78 | 248 | 13.0 | 18.0 | 0.00 | 0.00 | 0.00 | 18 | 924.6 |
| 20260503223433 | 78 | 276 | 4.0 | 10.0 | 0.00 | 0.00 | 0.00 | 19 | 924.9 |
| 20260503222928 | 77 | 265 | 10.0 | 14.0 | 0.00 | 0.00 | 0.00 | 21 | 925.1 |
| 20260503222427 | 76 | 50 | 3.0 | 8.0 | 0.00 | 0.00 | 0.00 | 20 | 924.9 |
| 20260503221925 | 75 | 241 | 2.0 | 3.0 | 0.00 | 0.00 | 0.00 | 23 | 925.0 |
| 20260503221423 | 74 | 354 | 5.0 | 10.0 | 0.00 | 0.00 | 0.00 | 23 | 925.4 |
| 20260503220919 | 74 | 336 | 3.0 | 3.0 | 0.00 | 0.00 | 0.00 | 24 | 925.2 |
| 20260503220416 | 76 | 318 | 4.0 | 7.0 | 0.00 | 0.00 | 0.00 | 22 | 925.3 |
| 20260503215913 | 76 | 318 | 4.0 | 7.0 | 0.00 | 0.00 | 0.00 | 22 | 925.6 |
| 20260503215410 | 76 | 318 | 4.0 | 7.0 | 0.00 | 0.00 | 0.00 | 22 | 925.6 |
| 20260503214908 | 76 | 318 | 4.0 | 7.0 | 0.00 | 0.00 | 0.00 | 22 | 925.7 |
| 20260503214405 | 77 | 284 | 6.0 | 7.0 | 0.00 | 0.00 | 0.00 | 22 | 926.0 |
| 20260503213902 | 77 | 276 | 4.0 | 6.0 | 0.00 | 0.00 | 0.00 | 23 | 925.7 |
| 20260503213400 | 76 | 249 | 6.0 | 8.0 | 0.00 | 0.00 | 0.00 | 22 | 925.9 |
| 20260503212856 | 76 | 249 | 6.0 | 8.0 | 0.00 | 0.00 | 0.00 | 22 | 926.0 |
| 20260503212354 | 76 | 249 | 6.0 | 8.0 | 0.00 | 0.00 | 0.00 | 22 | 926.1 |
| 20260503211851 | 76 | 254 | 7.0 | 8.0 | 0.00 | 0.00 | 0.00 | 22 | 926.1 |
| 20260503211348 | 76 | 254 | 7.0 | 8.0 | 0.00 | 0.00 | 0.00 | 22 | 926.5 |
| 20260503210843 | 75 | 293 | 17.0 | 19.0 | 0.00 | 0.00 | 0.00 | 22 | 926.5 |
| 20260503210341 | 75 | 293 | 17.0 | 19.0 | 0.00 | 0.00 | 0.00 | 22 | 926.5 |
| 20260503205835 | 75 | 293 | 17.0 | 19.0 | 0.00 | 0.00 | 0.00 | 22 | 926.9 |
| 20260503205332 | 75 | 293 | 17.0 | 19.0 | 0.00 | 0.00 | 0.00 | 22 | 927.0 |
| 20260503204829 | 75 | 293 | 17.0 | 19.0 | 0.00 | 0.00 | 0.00 | 22 | 926.8 |
| 20260503204326 | 75 | 293 | 17.0 | 19.0 | 0.00 | 0.00 | 0.00 | 22 | 927.1 |
| 20260503203823 | 73 | 25 | 4.0 | 8.0 | 0.00 | 0.00 | 0.00 | 25 | 927.0 |
| 20260503203321 | 74 | 195 | 6.0 | 7.0 | 0.00 | 0.00 | 0.00 | 24 | 926.9 |
| 20260503202817 | 74 | 341 | 4.0 | 6.0 | 0.00 | 0.00 | 0.00 | 24 | 927.1 |
| 20260503202316 | 74 | 298 | 5.0 | 9.0 | 0.00 | 0.00 | 0.00 | 23 | 927.4 |
| 20260503201814 | 75 | 330 | 11.0 | 13.0 | 0.00 | 0.00 | 0.00 | 22 | 927.3 |
| 20260503201310 | 74 | 336 | 4.0 | 11.0 | 0.00 | 0.00 | 0.00 | 24 | 927.5 |
| 20260503200808 | 73 | 262 | 4.0 | 11.0 | 0.00 | 0.00 | 0.00 | 25 | 927.5 |
| 20260503200303 | 73 | 276 | 3.0 | 10.0 | 0.00 | 0.00 | 0.00 | 24 | 927.6 |
| 20260503195801 | 73 | 294 | 5.0 | 9.0 | 0.00 | 0.00 | 0.00 | 24 | 927.7 |
| 20260503195257 | 73 | 348 | 4.0 | 9.0 | 0.00 | 0.00 | 0.00 | 26 | 927.7 |
| 20260503194755 | 73 | 332 | 3.0 | 9.0 | 0.00 | 0.00 | 0.00 | 26 | 928.0 |
| 20260503194250 | 72 | 243 | 9.0 | 11.0 | 0.00 | 0.00 | 0.00 | 30 | 928.0 |
| 20260503193746 | 72 | 249 | 7.0 | 13.0 | 0.00 | 0.00 | 0.00 | 28 | 928.1 |
| 20260503193243 | 72 | 286 | 3.0 | 13.0 | 0.00 | 0.00 | 0.00 | 26 | 928.1 |
| 20260503192739 | 72 | 25 | 4.0 | 6.0 | 0.00 | 0.00 | 0.00 | 25 | 928.1 |
| 20260503192234 | 72 | 339 | 12.0 | 13.0 | 0.00 | 0.00 | 0.00 | 26 | 928.5 |
| 20260503191731 | 71 | 294 | 6.0 | 13.0 | 0.00 | 0.00 | 0.00 | 27 | 928.4 |
| 20260503191228 | 71 | 226 | 10.0 | 13.0 | 0.00 | 0.00 | 0.00 | 30 | 928.5 |
| 20260503190725 | 71 | 287 | 5.0 | 6.0 | 0.00 | 0.00 | 0.00 | 28 | 928.6 |
| 20260503190221 | 72 | 243 | 6.0 | 12.0 | 0.00 | 0.00 | 0.00 | 29 | 928.7 |
| 20260503185719 | 73 | 324 | 5.0 | 11.0 | 0.00 | 0.00 | 0.00 | 30 | 928.8 |
| 20260503185214 | 71 | 200 | 3.0 | 6.0 | 0.00 | 0.00 | 0.00 | 26 | 928.9 |
| 20260503184709 | 71 | 301 | 5.0 | 6.0 | 0.00 | 0.00 | 0.00 | 28 | 929.1 |
| 20260503184206 | 71 | 330 | 2.0 | 7.0 | 0.00 | 0.00 | 0.00 | 27 | 929.1 |
| 20260503183702 | 71 | 293 | 9.0 | 15.0 | 0.00 | 0.00 | 0.00 | 27 | 929.2 |
| 20260503183200 | 70 | 292 | 8.0 | 9.0 | 0.00 | 0.00 | 0.00 | 28 | 929.2 |
| 20260503182658 | 71 | 339 | 5.0 | 9.0 | 0.00 | 0.00 | 0.00 | 29 | 929.3 |
| 20260503182156 | 70 | 307 | 3.0 | 8.0 | 0.00 | 0.00 | 0.00 | 28 | 929.4 |
| 20260503181652 | 70 | 264 | 9.0 | 15.0 | 0.00 | 0.00 | 0.00 | 29 | 929.5 |
| 20260503181149 | 69 | 289 | 3.0 | 6.0 | 0.00 | 0.00 | 0.00 | 31 | 929.6 |
| 20260503180646 | 71 | 241 | 12.0 | 14.0 | 0.00 | 0.00 | 0.00 | 33 | 929.5 |
| 20260503180144 | 70 | 284 | 6.0 | 7.0 | 0.00 | 0.00 | 0.00 | 32 | 929.6 |
| 20260503175640 | 69 | 221 | 8.0 | 11.0 | 0.00 | 0.00 | 0.00 | 37 | 929.8 |
| 20260503175138 | 68 | 218 | 8.0 | 13.0 | 0.00 | 0.00 | 0.00 | 38 | 929.8 |
| 20260503174634 | 68 | 235 | 6.0 | 16.0 | 0.00 | 0.00 | 0.00 | 35 | 929.8 |
| 20260503174132 | 68 | 241 | 10.0 | 12.0 | 0.00 | 0.00 | 0.00 | 36 | 929.9 |
| 20260503173626 | 68 | 226 | 9.0 | 14.0 | 0.00 | 0.00 | 0.00 | 36 | 929.9 |
| 20260503173123 | 68 | 26 | 2.0 | 8.0 | 0.00 | 0.00 | 0.00 | 35 | 930.1 |
| 20260503172620 | 67 | 278 | 7.0 | 10.0 | 0.00 | 0.00 | 0.00 | 36 | 930.1 |
| 20260503172118 | 67 | 128 | 1.0 | 6.0 | 0.00 | 0.00 | 0.00 | 39 | 930.2 |
| 20260503171614 | 66 | 229 | 2.0 | 5.0 | 0.00 | 0.00 | 0.00 | 42 | 930.4 |
| 20260503171111 | 66 | 245 | 9.0 | 11.0 | 0.00 | 0.00 | 0.00 | 40 | 930.3 |
| 20260503170608 | 66 | 230 | 12.0 | 13.0 | 0.00 | 0.00 | 0.00 | 40 | 930.4 |
| 20260503170105 | 66 | 305 | 4.0 | 7.0 | 0.00 | 0.00 | 0.00 | 42 | 930.6 |
| 20260503151000 | 58 | 207 | 9.0 | 13.0 | 0.00 | 0.00 | 0.00 | 51 | 931.3 |
| 20260503150456 | 58 | 222 | 9.0 | 14.0 | 0.00 | 0.00 | 0.00 | 52 | 931.3 |
| 20260503131349 | 51 | 244 | 2.0 | 4.0 | 0.00 | 0.00 | 0.00 | 67 | 931.8 |
| 20260503130847 | 50 | 281 | 2.0 | 3.0 | 0.00 | 0.00 | 0.00 | 68 | 931.9 |
| 20260503130344 | 49 | 259 | 4.0 | 5.0 | 0.00 | 0.00 | 0.00 | 71 | 931.8 |
| 20260503110738 | 48 | 346 | 4.0 | 5.0 | 0.00 | 0.00 | 0.00 | 70 | 931.9 |
| 20260503110235 | 48 | 4 | 4.0 | 5.0 | 0.00 | 0.00 | 0.00 | 70 | 931.9 |
| 20260503100201 | 49 | 284 | 6.0 | 8.0 | 0.00 | 0.00 | 0.00 | 64 | 932.2 |
| 20260503090126 | 50 | 353 | 4.0 | 5.0 | 0.00 | 0.00 | 0.00 | 60 | 931.8 |
| 20260503081602 | 50 | 357 | 3.0 | 5.0 | 0.00 | 0.00 | 0.00 | 60 | 931.8 |
| 20260503081059 | 50 | 345 | 2.0 | 3.0 | 0.00 | 0.00 | 0.00 | 62 | 931.8 |
| 20260503080554 | 50 | 269 | 0.0 | 2.0 | 0.00 | 0.00 | 0.00 | 61 | 931.7 |